Saturday, December 20, 2014
18:38 UTC
  |  Log In   |  Register Free
Airport Search:

Skyway Estates Airport
(60G)

Skyway Estates Airport Diagram
No Airport Diagram Available

FAA data valid effective November 13, 2014 - January 08, 2015 (unless otherwise noted).

 
 
 
 
 
 
 
 
 
 
 
 
 
 

Current Aviation Weather for Skyway Estates Airport (60G)

METAR data is unavailable for 60G. The nearest METAR location is at KFPK (7.1 nm SW from 60G).

The most recent METAR observation for KFPK was updated at: 2114
METAR Summary (Translated METAR)
KFPK
182055Z AUTO 26006KT 2SM UP BKN006 OVC011 M01/M02 A3015 RMK AO2 T10131023
(7.1 nm SW from 60G)
K11J
201400Z AUTO 03007KT 010V070 10SM CLR 16/11 A3018 RMK AO2 T01620107
(10.1 nm SE from 60G)
TAF
No TAF information found within 50 nm of KFPK
  Airport Weather Conditions for 60G

Current weather conditions are
not available for 60G


The nearest NOAA weather station
is at FPK, (7.1 nm SW from 60G)
  
 Current Weather at FPK
29° F
Partly Cloudy
Southeast winds at 4.6 mph
FPK NOAA Radar

Pressure: 30.24 in
Humidity: 75%
Wind: Southeast at 4.6 MPH (4 KT)
Dew Point: 21.6°F
Visibility: 7.00 mi


Airport Weather Forecast for 60G

Translated METAR and TAF for KFPK
Translated METAR for KFPK (1839 UTC 20 December 2014)
found at http://aviationweather.gov/adds/metars/
 
METAR text: KFPK 201835Z AUTO 18003KT 10SM SCT019 M02/M06 A3024 RMK AO2 T10171057
Conditions at: KFPK (CHARLOTTE , MI, US) observed 1835 UTC 20 December 2014
Temperature: -1.7°C (29°F)
Dewpoint: -5.7°C (22°F) [RH = 74%]
Pressure (altimeter): 30.24 inches Hg (1024.1 mb)
Winds: from the S (180 degrees) at 3 MPH (3 knots; 1.6 m/s)
Visibility: 10 or more miles (16+ km)
Ceiling: at least 12,000 feet AGL
Clouds: scattered clouds at 1900 feet AGL
Weather: automated observation with no human augmentation;
there may or may not be significant weather present at this time
Translated TAF for KFPK

There is no translated TAF available for this airport

Find All Airport Services Find A Hotel Find A Rental Car Find A Golf Course Find A Restaurant $100 Hamburger



FBO's on the Field
FBO Company Facility Photos Services Transportation Aviation Fuel Prices: Prices include tax
Catering Weather Repair Courtesy Rental Type 100LL JetA JetA+ MOGAS 8087
 
Add another FBO Facility Photos Catering Weather Repair Courtesy Rental Type 100LL JetA JetA+ MOGAS 8087
Services Transportation Aviation Fuel Prices: Prices include tax
There are no FBO's currently reporting fuel at 60G. List your FBO now


model-print
model-print
model-print
model-print